Regional Weather Roundup
Issued by NWS Midland/Odessa, TX

Skip options and go directly to product.
Home | Oldest Version | Previous Version | Current Version | All | Graphics & Text | Save Text | Print | Product List | Glossary On

Skip product version selection by date and time.   
213
ASUS44 KMAF 011310
RWRMAF
MIDLAND AREA WEATHER ROUNDUP
NATIONAL WEATHER SERVICE MIDLAND TX
800 AM CDT SUN MAY 01 2016

...IN SOUTHWEST TEXAS AND SOUTHEAST NEW MEXICO...

CITY           SKY/WX    TMP DP  RH WIND       PRES   REMARKS
ALPINE         CLEAR     52  31  45 N9        29.99R
ANDREWS        CLOUDY    49  32  51 NE23      30.03S
ARTESIA        CLOUDY    46  34  61 N18       30.13R WCI  39
BIG SPRING     SUNNY     50  34  54 NE25G36   30.05R
CARLSBAD       CLOUDY    49  33  54 N18       30.09R
DRYDEN           N/A     66  55  67 E16G22    29.85R
FORT STOCKTON  CLOUDY    58  51  78 NE21      29.93R
GUAD PASS      CLOUDY    43  34  70 NE45G51   29.99R WCI  30
HOBBS          CLOUDY    45  32  61 N21G33    30.08R WCI  36
MARFA          CLEAR     53  31  42 N15       29.95R
MIDLAND AIRPK  CLOUDY    52  36  54 NE20G26   30.05R
MIDLAND INTL   CLOUDY    52  35  52 NE26      30.03R
ODESSA         CLOUDY    52  34  50 E24G31    30.05R
PECOS          CLOUDY    56  38  50 N14       29.99R
PRESIDIO       FAIR      61  24  24 MISG      29.82R
SEMINOLE       CLOUDY    47  33  57 NE23      30.07R WCI  39
SNYDER           N/A     47  33  56 NE21G29   30.03R
WINK           CLOUDY    53  35  50 NE24G31   29.98R
$$
...OTHER STATIONS IN TEXAS...

CITY           SKY/WX    TMP DP  RH WIND       PRES   REMARKS
ABILENE        MOSUNNY   51  40  65 N15       30.06R
AMARILLO       CLOUDY    42  33  70 N22G29    30.13R WCI  33
AUSTIN         MOSUNNY   68  64  87 N10       29.87R
BROWNSVILLE    CLOUDY    77  77 100 E5        29.75R FOG
CORPUS CHRISTI PTSUNNY   80  75  84 E5        29.78R HAZE
DALLAS FTW     MOSUNNY   61  48  62 N20       29.97R
DEL RIO        CLOUDY    71  65  81 E12       29.83R
EL PASO        PTCLDY    51  35  54 E9        29.95R
HOUSTON INT    PTSUNNY   71  66  84 NE12      29.82R
LUBBOCK        CLOUDY    45  33  63 NE22G33   30.06R WCI  37
SAN ANGELO     CLOUDY    58  48  69 NE16      30.00R
SAN ANTONIO    CLOUDY    69  63  81 N6        29.88R
WACO           CLOUDY    61  58  90 N12       29.93R
WICHITA FALLS  NOT AVBL
$$
...OTHER LOCATIONS IN NEW MEXICO...

CITY           SKY/WX    TMP DP  RH WIND       PRES   REMARKS
ALAMAGORDO     PTCLDY    55  32  41 N8        29.95R
ALBUQUERQUE    CLOUDY    42  30  62 E29G41    29.97R WCI  31
CANNON AFB     NOT AVBL
CLOVIS         CLOUDY    39  30  70 NE25G32   30.09F WCI  28
HOLLOMAN AFB   PTCLDY    55  35  47 NW15      29.94R
ROSWELL        LGT RAIN  45  33  63 N15       30.13R WCI  38
RUIDOSO        LGT SNOW  32  32 100 SE10      30.13R WCI  24
SANTA FE       CLOUDY    37  34  89 N10       30.04R WCI  30
TRUTH OR CONSE MOCLDY    47  31  53 N16       29.93R
TUCUMCARI      CLOUDY    41  35  79 NE7       30.14R WCI  36
$$

USA.gov is the U.S. government's official web portal to all federal, state and local government web resources and services.